Flag for United Kingdom Weather past 2 weeks in Glasgow, Scotland, United Kingdom

Now
57 °F

Light rain. Scattered clouds.


Feels Like: 55 °F
Forecast: 44 / 58 °F
Wind: 10 mph from Southeast

Location: Glasgow Airport


UV Index: 0 (Low)

Visibility: N/A


Pressure: 29.95 "Hg

Humidity: 72%

Dew point: 48 °F

Location of GlasgowLocation

Historic Weather in Glasgow

°F

Glasgow temperature yesterday

Maximum temperature yesterday: 54 °F (at 12:50 PM)
Minimum temperature yesterday: 45 °F (at 1:20 AM)
Average temperature yesterday: 50 °F

Past Weeks' High & Low Weather Summary

 TemperatureHumidityPressure
High63 °F (Apr 19, 2:20 PM)100% (Apr 10, 7:20 AM)30.42 "Hg (Apr 10, 7:20 AM)
Low28 °F (Apr 18, 5:20 AM)27% (Apr 19, 4:50 PM)29.77 "Hg (Apr 12, 8:20 AM)
Average48 °F77%30.06 "Hg
* Reported Apr 8 2:20 PM — Apr 23 2:50 PM, Glasgow, Weather by CustomWeather, © 2014

Note: Actual official high and low records may vary slightly from our data, if they occured in-between our weather recording intervals... More about our weather records

Advertising

Historic Weather Conditions — Data for Previous 24 hours

 ConditionsComfort  
Time TempWeatherWind HumidityBarometerVisibility
2:50 PM
Apr 23
59 °FBroken clouds.12 mph63%29.95 "HgN/A
2:20 PM59 °FBroken clouds.13 mph63%29.92 "HgN/A
1:50 PM59 °FBroken clouds.12 mph63%29.92 "HgN/A
1:20 PM59 °FBroken clouds.13 mph63%29.92 "HgN/A
12:50 PM61 °FScattered clouds.13 mph59%29.92 "HgN/A
12:20 PM59 °FPartly sunny.14 mph63%29.92 "HgN/A
11:50 AM59 °FPartly sunny.15 mph63%29.92 "HgN/A
11:20 AM57 °FPartly sunny.10 mph72%29.92 "HgN/A
10:50 AM57 °FPartly sunny.12 mph72%29.92 "HgN/A
10:20 AM57 °FPartly sunny.10 mph72%29.92 "HgN/A
9:50 AM55 °FPartly sunny.10 mph82%29.89 "HgN/A
9:20 AM54 °FPartly sunny.9 mph82%29.89 "Hg5 mi
8:50 AM54 °FPartly sunny.7 mph88%29.89 "Hg4 mi
8:20 AM52 °FPartly sunny.8 mph88%29.89 "Hg3 mi
7:50 AM50 °FBroken clouds.8 mph94%29.89 "Hg4 mi
7:20 AM52 °FPartly sunny.7 mph88%29.86 "Hg5 mi
6:50 AM50 °FPassing clouds.8 mph94%29.86 "Hg4 mi
6:20 AM50 °FFog.8 mph94%29.86 "Hg3 mi
5:50 AM50 °FMostly cloudy.8 mph94%29.86 "Hg4 mi
5:20 AM50 °FFog.7 mph94%29.86 "Hg3 mi
4:50 AM50 °FFog.7 mph94%29.86 "Hg3 mi
4:20 AM50 °FPassing clouds.8 mph94%29.86 "Hg4 mi
3:50 AM48 °FFog.7 mph100%29.86 "Hg2 mi
3:20 AM50 °FFog.7 mph94%29.83 "Hg3 mi
2:50 AM50 °FFog.6 mph94%29.83 "Hg3 mi
2:20 AM50 °FFog.6 mph94%29.83 "Hg3 mi
1:50 AM50 °FFog.9 mph94%29.83 "Hg3 mi
1:20 AM48 °FFog.9 mph100%29.83 "Hg3 mi
12:50 AM50 °FOvercast.9 mph94%29.83 "Hg4 mi
12:20 AM50 °FLight rain. Overcast.9 mph94%29.83 "Hg3 mi
11:50 PM
Apr 22
50 °FLight rain. Partly cloudy.7 mph94%29.83 "Hg3 mi
11:20 PM50 °FFog.9 mph94%29.80 "Hg3 mi
10:50 PM48 °FMostly cloudy.10 mph100%29.80 "Hg4 mi
10:20 PM50 °FLow clouds.12 mph94%29.80 "Hg4 mi
9:50 PM48 °FDrizzle. Mostly cloudy.12 mph100%29.80 "Hg3 mi
9:20 PM48 °FLight rain. Mostly cloudy.10 mph100%29.80 "Hg3 mi
8:50 PM48 °FLight rain. Mostly cloudy.13 mph100%29.80 "Hg2 mi
8:20 PM50 °FLight rain. Mostly cloudy.13 mph94%29.80 "Hg3 mi
7:50 PM50 °FScattered showers. Broken clouds.13 mph94%29.77 "Hg4 mi
7:20 PM50 °FLight rain. Broken clouds.13 mph94%29.77 "Hg6 mi
6:50 PM50 °FLight rain. Broken clouds.17 mph94%29.77 "HgN/A
6:20 PM50 °FBroken clouds.15 mph94%29.80 "HgN/A
5:50 PM50 °FScattered showers. Broken clouds.14 mph94%29.80 "HgN/A
5:20 PM50 °FLight rain. Broken clouds.16 mph94%29.80 "Hg4 mi
4:50 PM52 °FScattered showers. Broken clouds.15 mph94%29.80 "Hg4 mi
4:20 PM50 °FScattered showers. Broken clouds.13 mph100%29.80 "Hg5 mi
Weather by CustomWeather, © 2014

See weather overview